[[{"header":{"parameterUnit":"m.s-1","parameterCategory":2,"la1":30.2991,"la2":30.254,"lo1":-89.0895,"lo2":-89.0444,"dy":0.0017,"dx":0.0017,"nx":28,"ny":28,"refTime":"2025-05-26T21:00:00:Z","depth":"0","parameterNumber":2,"parameterNumberName":"U-component_of_CURRENTS"},"data":[0,0,0,0,0,0,0,0,0,0,0,0,0,0,0,0,0,0,0,0,0,0,0,0,0,0,0,0,0,0,0,0,0,0,0,0,0,0,0,0,0,0,0,0,0,0,0,0,0,0,0,0,0,0,0,0,0,0,0.3592,0.3592,0,0.3602,0.3602,0.3602,0.358,0.3579,0.3579,0.3579,0.3572,0.3572,0.3572,0,0,0,0,0,0,0,0,0,0,0,0,0,0.3562,0.3562,0.3592,0.3592,0.3593,0.3602,0.3602,0.3602,0.358,0.3579,0.3579,0.3578,0.3571,0.3572,0.3572,0,0,0,0,0,0,0,0,0,0,0,0,0,0.3572,0.3562,0.3592,0.3584,0.3584,0.3603,0.3602,0.3602,0.358,0.3579,0.3579,0.3578,0.3571,0.3572,0.3572,0.359,0,0,0.3573,0.3574,0,0,0,0,0,0,0,0,0.3571,0.3572,0.3585,0.3585,0.3585,0.3591,0.3589,0.3598,0.358,0.3579,0.3579,0.3578,0.3579,0.3578,0.3579,0.3589,0.3589,0.3573,0.3574,0.3574,0.3574,0,0,0,0,0,0,0,0.357,0.3572,0.3594,0.3586,0.3585,0.3584,0.3584,0.3591,0.3581,0.3579,0.3578,0.3584,0.3578,0.3579,0.3579,0.3589,0.3573,0.3574,0.3574,0.3574,0.3663,0.3665,0,0,0,0,0,0,0.3575,0.3571,0.3593,0.3594,0.3579,0.3585,0.3586,0.3588,0.3581,0.358,0.3584,0.3583,0.3578,0.3578,0.3578,0.3637,0.3574,0.3574,0.3575,0.3661,0.3663,0.3666,0,0,0,0,0,0,0.3574,0.3576,0.3593,0.3585,0.3587,0.3587,0.359,0.3589,0.3595,0.3585,0.3583,0.3592,0.3578,0.3578,0.3599,0.3635,0.3575,0.3575,0.3658,0.3662,0.3665,0.3729,0,0,0,0,0,0,0.3573,0.3576,0.3579,0.3585,0.3588,0.3617,0.3591,0.3589,0.36,0.3598,0.3592,0.359,0.3577,0.3599,0.36,0.3634,0.3575,0.3656,0.366,0.3664,0.3725,0.3734,0.3743,0,0,0,0,0,0.3572,0.3582,0.3579,0.3582,0.3592,0.3619,0.362,0.3615,0.3601,0.3615,0.3612,0.359,0.3625,0.3601,0.3601,0.3637,0.3654,0.3659,0.3663,0.3721,0.3733,0.3743,0,0,0,0,0,0,0.3569,0.3581,0.3577,0.359,0.3609,0.3616,0.3626,0.3624,0.3632,0.3626,0.3612,0.3611,0.3646,0.3636,0.361,0.3677,0.3639,0.3644,0.3682,0.3693,0.3702,0.3711,0.3576,0,0,0,0,0,0.3571,0.3581,0.3597,0.3608,0.3619,0.3624,0.3633,0.3633,0.3642,0.3643,0.3639,0.3645,0.3667,0.3674,0.3685,0.3717,0.3748,0.3744,0.3753,0.376,0.377,0.3874,0.3893,0.3681,0.3681,0.3681,0,0,0.3572,0.3582,0.3586,0.3609,0.3619,0.3643,0.3627,0.3649,0.367,0.3643,0.3667,0.3675,0.3684,0.3722,0.3738,0.3716,0.3836,0.3766,0.3773,0.3778,0.3881,0.3902,0.392,0.3684,0.3684,0.3683,0,0,0.3584,0.3591,0.3604,0.3625,0.365,0.366,0.3671,0.3686,0.3696,0.3724,0.3719,0.3752,0.3765,0.3791,0.3803,0.3873,0.3883,0.3875,0.3925,0.4026,0.4044,0.4061,0.4121,0.4142,0.3878,0.3878,0.3878,0,0.3583,0.3599,0.3615,0.3639,0.3657,0.3672,0.3696,0.3717,0.3737,0.3765,0.3739,0.3808,0.3804,0.388,0.3897,0.3894,0.3941,0.3878,0.4039,0.4056,0.4072,0.4129,0.4152,0.3882,0.3881,0.3881,0.388,0,0.3605,0.3622,0.3637,0.3668,0.3697,0.3722,0.3757,0.3787,0.3797,0.3823,0.3894,0.3902,0.3951,0.3956,0.3939,0.4055,0.4048,0.404,0.401,0.4097,0.4151,0.4174,0.3887,0.3886,0.3884,0.3884,0,0,0.3584,0.3638,0.3641,0.3656,0.3712,0.3732,0.3794,0.3856,0.3909,0.3935,0.4024,0.4046,0.4067,0.4084,0.4087,0.4154,0.4291,0.4143,0.4146,0.42,0.4502,0.4402,0.4416,0.4322,0.4326,0.433,0.4492,0,0.3591,0.3627,0.3663,0.3703,0.3723,0.3776,0.3837,0.3901,0.3959,0.4053,0.4101,0.418,0.4115,0.4158,0.4218,0.4295,0.4355,0.4246,0.4411,0.4415,0.4315,0.4441,0.4251,0.4373,0.4514,0.4518,0.4521,0,0.3588,0.3615,0.3649,0.3718,0.3735,0.3769,0.3874,0.3933,0.4081,0.4142,0.4239,0.4296,0.4414,0.4347,0.4507,0.4448,0.4474,0.4508,0.4516,0.4415,0.4358,0.4311,0.4408,0.4332,0.4555,0.4553,0.455,0,0.3539,0.36,0.3622,0.3642,0.373,0.3765,0.3821,0.3952,0.4042,0.4219,0.4335,0.4453,0.4563,0.4627,0.4678,0.4624,0.4855,0.4794,0.4719,0.4711,0.4576,0.4548,0.4615,0.4902,0.4902,0.4902,0.4901,0,0.3517,0.3531,0.3595,0.3603,0.3652,0.373,0.3827,0.3911,0.4099,0.4241,0.4376,0.4527,0.4647,0.4783,0.4776,0.4833,0.494,0.4759,0.4767,0.4589,0.4562,0.4507,0.4461,0.4908,0.4906,0.4905,0.4904,0,0.345,0.3492,0.3516,0.3596,0.3623,0.3654,0.3817,0.3911,0.4094,0.4303,0.4384,0.4648,0.4818,0.4899,0.5041,0.4972,0.4889,0.4996,0.4757,0.4731,0.4528,0.4491,0.4389,0.4263,0.4946,0.4945,0.4943,0,0.3415,0.342,0.3485,0.3507,0.3536,0.3614,0.3694,0.3876,0.3999,0.436,0.4466,0.4733,0.488,0.5058,0.5002,0.5002,0.4867,0.4812,0.465,0.4522,0.4491,0.4308,0.4196,0.4503,0.4498,0.4495,0.4492,0,0.3351,0.3371,0.3393,0.3449,0.3505,0.3589,0.371,0.3808,0.4063,0.4248,0.4508,0.4669,0.4868,0.4817,0.4838,0.4797,0.4587,0.473,0.469,0.423,0.3948,0.3828,0.4373,0.4459,0.4462,0.4464,0.4466,0.4467,0.3297,0.3297,0.3341,0.3389,0.3458,0.3546,0.3578,0.3736,0.3904,0.4121,0.4365,0.4491,0.4608,0.4607,0.4559,0.4378,0.434,0.4221,0.4216,0.4064,0.3843,0.4289,0.4317,0.432,0.4322,0.4324,0.4325,0,0.3228,0.3252,0.3292,0.3345,0.3397,0.3465,0.3581,0.3591,0.3699,0.3889,0.4039,0.4125,0.4106,0.4157,0.4072,0.3912,0.3708,0.3811,0.3541,0.3478,0.3981,0.3862,0.368,0.368,0.368,0.368,0.368,0.368,0.3195,0.3195,0.3226,0.3275,0.3317,0.3317,0.3345,0.3356,0.3419,0.345,0.3468,0.3573,0.3824,0.3888,0.3751,0.3639,0.3392,0.3193,0.3223,0.3627,0.3664,0.37,0.358,0.3342,0.3342,0.2551,0.2546,0.2541]},{"header":{"parameterUnit":"m.s-1","parameterCategory":2,"la1":30.2991,"la2":30.254,"lo1":-89.0895,"lo2":-89.0444,"dy":0.0017,"dx":0.0017,"nx":28,"ny":28,"refTime":"2025-05-26T21:00:00:Z","depth":"0","parameterNumber":3,"parameterNumberName":"V-component_of_CURRENTS"},"data":[0,0,0,0,0,0,0,0,0,0,0,0,0,0,0,0,0,0,0,0,0,0,0,0,0,0,0,0,0,0,0,0,0,0,0,0,0,0,0,0,0,0,0,0,0,0,0,0,0,0,0,0,0,0,0,0,0,0,0.0326,0.0326,0,0.0271,0.027,0.0269,0.0229,0.0228,0.0228,0.0228,0.0158,0.0156,0.0155,0,0,0,0,0,0,0,0,0,0,0,0,0,0.0343,0.0343,0.0327,0.0326,0.0325,0.0271,0.027,0.0269,0.0229,0.0228,0.0228,0.0228,0.0159,0.0157,0.0155,0,0,0,0,0,0,0,0,0,0,0,0,0,0.0315,0.0343,0.0327,0.03,0.0297,0.0271,0.027,0.0269,0.0229,0.0228,0.0228,0.0228,0.0159,0.0157,0.0154,0.0146,0,0,0.0147,0.0146,0,0,0,0,0,0,0,0,0.0317,0.0315,0.0304,0.0301,0.0298,0.0258,0.025,0.0228,0.0229,0.0253,0.0228,0.0228,0.0191,0.0186,0.0175,0.0143,0.014,0.0147,0.0145,0.0144,0.0143,0,0,0,0,0,0,0,0.0319,0.0317,0.0303,0.0304,0.03,0.0272,0.0268,0.0246,0.0223,0.0251,0.0248,0.0244,0.0189,0.0177,0.0173,0.0139,0.0147,0.0144,0.0143,0.0142,0.0109,0.011,0,0,0,0,0,0,0.0332,0.0319,0.0305,0.0302,0.0309,0.0272,0.0268,0.027,0.0224,0.0217,0.0245,0.0243,0.0181,0.0176,0.017,0.0183,0.0144,0.0142,0.014,0.0108,0.0109,0.011,0,0,0,0,0,0,0.0333,0.0332,0.0307,0.0309,0.0305,0.0273,0.0275,0.0269,0.0261,0.0219,0.0212,0.0243,0.0181,0.0173,0.0158,0.0179,0.0141,0.0138,0.0108,0.0109,0.011,0.0191,0,0,0,0,0,0,0.0334,0.0332,0.0337,0.0311,0.0305,0.0304,0.0275,0.0268,0.0259,0.0256,0.0216,0.0209,0.018,0.0162,0.0155,0.0174,0.0136,0.0107,0.0108,0.0109,0.0188,0.0195,0.0201,0,0,0,0,0,0.0335,0.0351,0.0338,0.0336,0.0313,0.0305,0.03,0.0274,0.026,0.0264,0.0234,0.021,0.0164,0.016,0.0152,0.0172,0.0106,0.0108,0.0109,0.0185,0.0194,0.0201,0,0,0,0,0,0,0.036,0.0347,0.0333,0.0343,0.0329,0.0299,0.03,0.0281,0.026,0.0257,0.0215,0.0207,0.0199,0.0173,0.017,0.0165,0.0132,0.0132,0.0193,0.02,0.0207,0.0231,0.0134,0,0,0,0,0,0.0368,0.0377,0.0356,0.0363,0.0359,0.033,0.0322,0.0307,0.0285,0.0275,0.0246,0.0218,0.0198,0.019,0.0164,0.0164,0.014,0.0171,0.0178,0.0183,0.0197,0.0184,0.0192,0.0114,0.0114,0.0114,0,0,0.0379,0.0374,0.0377,0.0369,0.0354,0.0363,0.0324,0.0322,0.0333,0.0271,0.0274,0.0237,0.0201,0.0198,0.0193,0.0181,0.019,0.0185,0.0191,0.0201,0.0187,0.0194,0.0201,0.0115,0.0115,0.0115,0,0,0.0413,0.0401,0.0422,0.0417,0.0406,0.0389,0.0393,0.0369,0.0362,0.0356,0.0317,0.0295,0.0263,0.0245,0.0231,0.0259,0.0221,0.025,0.0309,0.0297,0.0303,0.0309,0.0279,0.0282,0.0259,0.0259,0.0259,0,0.0426,0.0451,0.0426,0.0446,0.0451,0.0408,0.0434,0.0422,0.0396,0.0402,0.037,0.0331,0.0289,0.03,0.0301,0.0276,0.0257,0.0284,0.0307,0.0312,0.0316,0.0285,0.0286,0.0263,0.0263,0.0262,0.0262,0,0.0478,0.0497,0.051,0.0522,0.0522,0.0537,0.052,0.0523,0.0502,0.0487,0.0485,0.0427,0.0408,0.0388,0.0348,0.0365,0.0336,0.0313,0.0291,0.0329,0.0293,0.0293,0.0269,0.0268,0.0266,0.0265,0,0,0.0514,0.0543,0.0548,0.0574,0.0567,0.0579,0.0599,0.0612,0.0648,0.0599,0.0643,0.0574,0.0537,0.0519,0.047,0.0451,0.0444,0.0399,0.0397,0.0379,0.0408,0.0359,0.0354,0.0428,0.0429,0.043,0.0368,0,0.0564,0.0629,0.0623,0.068,0.0713,0.069,0.0725,0.0728,0.072,0.075,0.0691,0.0705,0.0592,0.0599,0.0553,0.0489,0.045,0.0462,0.0367,0.0364,0.0323,0.0355,0.0376,0.0321,0.0368,0.0367,0.0367,0,0.0618,0.066,0.0728,0.0785,0.0799,0.0823,0.0877,0.0907,0.0924,0.0925,0.0905,0.0863,0.0828,0.0736,0.0617,0.0632,0.052,0.0451,0.0447,0.0377,0.0317,0.0291,0.0319,0.0162,0.0367,0.0367,0.0367,0,0.067,0.0733,0.0795,0.0811,0.0863,0.0897,0.093,0.0959,0.1027,0.1052,0.1112,0.1023,0.1037,0.088,0.07,0.0671,0.0574,0.0517,0.0358,0.0353,0.034,0.0332,0.0215,0.0424,0.0424,0.0424,0.0425,0,0.0729,0.078,0.0829,0.0865,0.0961,0.0972,0.1082,0.1103,0.1186,0.1309,0.1214,0.1299,0.1079,0.099,0.0775,0.0574,0.0621,0.0378,0.0342,0.0366,0.0362,0.0198,0.0072,0.0422,0.0423,0.0423,0.0423,0,0.0775,0.0801,0.0885,0.0957,0.0987,0.1061,0.1195,0.1299,0.1352,0.1519,0.1551,0.1529,0.1416,0.116,0.0936,0.0709,0.0388,0.0407,0.0437,0.0405,0.0093,-0.003,-0.0219,-0.0308,0.0228,0.0227,0.0225,0,0.0805,0.0851,0.0953,0.102,0.1056,0.1173,0.1281,0.1371,0.1506,0.1679,0.1789,0.1738,0.1729,0.1355,0.0949,0.0562,0.0361,0.0322,0.0254,0.0088,-0.0075,-0.0155,-0.0221,0.0263,0.0262,0.0262,0.0261,0,0.0867,0.0896,0.0967,0.111,0.1224,0.1379,0.1541,0.1675,0.1835,0.199,0.2174,0.2183,0.1835,0.1473,0.0929,0.065,0.0198,0.0295,0.0132,-0.0052,-0.0152,-0.0256,0.0274,0.0255,0.0256,0.0256,0.0256,0.0257,0.0908,0.0972,0.107,0.1211,0.1359,0.158,0.1743,0.195,0.2196,0.2451,0.2434,0.2479,0.1947,0.1215,0.0826,0.0164,0.0128,-0.0034,-0.0168,-0.023,-0.0323,0.0179,0.0111,0.0111,0.0111,0.011,0.011,0,0.0962,0.1042,0.1174,0.1361,0.1558,0.1626,0.1922,0.2122,0.2441,0.2615,0.2748,0.2484,0.1838,0.1174,0.0272,-0.0189,-0.0352,-0.0438,-0.0528,-0.0575,-0.0102,-0.0105,-0.0232,-0.0232,-0.0232,-0.0231,-0.0231,-0.0231,0.0993,0.1114,0.1189,0.1495,0.1654,0.1948,0.2137,0.2428,0.2614,0.284,0.2845,0.2794,0.2291,0.0694,-0.0321,-0.0565,-0.087,-0.0969,-0.1124,-0.0784,-0.0755,-0.0727,-0.0755,-0.1016,-0.1017,-0.1495,-0.15,-0.1504]}],[{"header":{"parameterUnit":"m.s-1","parameterCategory":2,"la1":30.2991,"la2":30.254,"lo1":-89.0895,"lo2":-89.0444,"dy":0.0017,"dx":0.0017,"nx":28,"ny":28,"refTime":"2025-05-26T21:00:00:Z","depth":"2","parameterNumber":2,"parameterNumberName":"U-component_of_CURRENTS"},"data":[0,0,0,0,0,0,0,0,0,0,0,0,0,0,0,0,0,0,0,0,0,0,0,0,0,0,0,0,0,0,0,0,0,0,0,0,0,0,0,0,0,0,0,0,0,0,0,0,0,0,0,0,0,0,0,0,0,0,0.3331,0.3331,0,0.3344,0.3343,0.3343,0.3333,0.3333,0.3333,0.3333,0.3333,0.3333,0.3333,0,0,0,0,0,0,0,0,0,0,0,0,0,0.3302,0.3302,0.3331,0.3331,0.3332,0.3344,0.3343,0.3343,0.3333,0.3333,0.3333,0.3333,0.3333,0.3333,0.3333,0,0,0,0,0,0,0,0,0,0,0,0,0,0.3312,0.3303,0.3331,0.333,0.333,0.3344,0.3343,0.3343,0.3333,0.3333,0.3333,0.3332,0.3333,0.3333,0.3333,0.334,0,0,0.3334,0.3334,0,0,0,0,0,0,0,0,0.3312,0.3313,0.333,0.333,0.3331,0.3339,0.3334,0.3343,0.3333,0.3329,0.3333,0.3332,0.3336,0.3336,0.3335,0.334,0.334,0.3334,0.3334,0.3334,0.3334,0,0,0,0,0,0,0,0.3311,0.3312,0.3333,0.333,0.3331,0.3331,0.3331,0.3335,0.3332,0.333,0.333,0.3335,0.3335,0.3335,0.3335,0.334,0.3334,0.3334,0.3334,0.3335,0.3415,0.3417,0,0,0,0,0,0,0.3315,0.3312,0.3333,0.3334,0.3323,0.3332,0.3332,0.3334,0.3332,0.3332,0.3336,0.3335,0.3334,0.3335,0.3335,0.3395,0.3334,0.3335,0.3335,0.3413,0.3416,0.3418,0,0,0,0,0,0,0.3314,0.3316,0.3332,0.3325,0.3328,0.3333,0.3335,0.3335,0.3347,0.3337,0.3336,0.3349,0.3334,0.3335,0.3357,0.3393,0.3335,0.3335,0.3411,0.3414,0.3417,0.3483,0,0,0,0,0,0,0.3313,0.3316,0.3321,0.3326,0.3328,0.3355,0.3335,0.3335,0.3351,0.3351,0.3349,0.3347,0.3334,0.3357,0.3357,0.3392,0.3335,0.3408,0.3412,0.3416,0.3478,0.3487,0.3496,0,0,0,0,0,0.3312,0.3321,0.3321,0.3324,0.3334,0.3357,0.3359,0.3359,0.3352,0.3366,0.3367,0.3348,0.3381,0.3359,0.3359,0.3395,0.3407,0.3411,0.3416,0.3474,0.3485,0.3495,0,0,0,0,0,0,0.3311,0.3322,0.3322,0.3333,0.3352,0.3356,0.3369,0.337,0.338,0.338,0.3367,0.3367,0.3403,0.3392,0.3367,0.3431,0.3394,0.3399,0.3438,0.3449,0.3458,0.3467,0.3335,0,0,0,0,0,0.3314,0.3324,0.3338,0.335,0.3361,0.3368,0.3377,0.3381,0.339,0.3394,0.3394,0.3401,0.3421,0.3428,0.3438,0.3467,0.349,0.3494,0.3503,0.351,0.352,0.3608,0.3626,0.3432,0.3432,0.3432,0,0,0.3316,0.3325,0.333,0.3351,0.3362,0.3384,0.3373,0.3396,0.3417,0.3393,0.3422,0.3431,0.3437,0.3473,0.3489,0.3468,0.3577,0.3516,0.3522,0.3528,0.3614,0.3633,0.365,0.3435,0.3435,0.3434,0,0,0.3327,0.3337,0.335,0.3369,0.3395,0.3404,0.3417,0.3434,0.3447,0.3475,0.3473,0.3507,0.352,0.3541,0.3551,0.3617,0.3622,0.3622,0.3671,0.3756,0.3773,0.3788,0.3835,0.3854,0.3624,0.3624,0.3624,0,0.333,0.3343,0.3359,0.3381,0.34,0.3417,0.344,0.3461,0.3484,0.3511,0.3493,0.3559,0.3556,0.3623,0.3643,0.3638,0.3677,0.3627,0.3768,0.3784,0.3798,0.3843,0.3863,0.3628,0.3627,0.3627,0.3627,0,0.3347,0.3365,0.3379,0.3409,0.3437,0.3461,0.3495,0.3527,0.3543,0.3568,0.3638,0.3647,0.3691,0.3699,0.3685,0.379,0.3781,0.3772,0.3741,0.3822,0.3863,0.3883,0.3633,0.3632,0.3631,0.363,0,0,0.333,0.3379,0.3383,0.3398,0.3452,0.347,0.353,0.3587,0.3635,0.3669,0.3747,0.3778,0.38,0.3814,0.3819,0.388,0.4002,0.387,0.3873,0.3915,0.418,0.4085,0.4097,0.4027,0.4031,0.4035,0.4165,0,0.3336,0.3368,0.3402,0.344,0.3458,0.351,0.3563,0.3625,0.3681,0.3763,0.3813,0.3884,0.3841,0.388,0.3938,0.4002,0.4058,0.3966,0.4096,0.4099,0.4005,0.4119,0.3764,0.3844,0.4184,0.4188,0.419,0,0.3333,0.3356,0.339,0.345,0.3466,0.3499,0.3595,0.3648,0.3779,0.3834,0.3927,0.3979,0.4089,0.4039,0.4184,0.4135,0.4161,0.419,0.4196,0.41,0.4043,0.382,0.3866,0.4222,0.422,0.4217,0.4215,0,0.3288,0.3344,0.3366,0.3385,0.3462,0.3498,0.3551,0.3668,0.375,0.3901,0.3998,0.4108,0.4202,0.4269,0.432,0.4281,0.4473,0.4425,0.4358,0.435,0.4067,0.4028,0.4525,0.4525,0.4525,0.4525,0.4524,0,0.3266,0.3281,0.3343,0.3351,0.3396,0.3469,0.3555,0.3629,0.3795,0.3914,0.4034,0.415,0.4272,0.4388,0.4396,0.4447,0.454,0.4394,0.4396,0.4078,0.404,0.4375,0.4356,0.4529,0.4528,0.4527,0.4527,0,0.3206,0.3246,0.327,0.3344,0.337,0.3402,0.3552,0.3629,0.3791,0.3966,0.4036,0.4244,0.4385,0.4473,0.4599,0.4549,0.4597,0.4576,0.4178,0.4131,0.4393,0.4376,0.4536,0.4534,0.4532,0.4531,0.453,0,0.3174,0.318,0.3243,0.3262,0.3292,0.3368,0.3433,0.36,0.3701,0.4,0.4078,0.4302,0.4398,0.455,0.4515,0.4533,0.4599,0.4202,0.4053,0.4418,0.4405,0.4389,0.4375,0.37,0.3692,0.3686,0.368,0,0.3115,0.3138,0.3158,0.3204,0.3253,0.3319,0.3425,0.3508,0.3728,0.3866,0.4049,0.4163,0.4332,0.4194,0.4239,0.4188,0.4172,0.4073,0.4599,0.3751,0.3641,0.3623,0.3635,0.3624,0.3629,0.3633,0.3637,0.3639,0.3067,0.3064,0.3103,0.3134,0.3197,0.3251,0.3265,0.3384,0.35,0.3656,0.3861,0.389,0.3957,0.3838,0.3723,0.363,0.3913,0.3712,0.3728,0.3751,0.363,0.3523,0.346,0.3464,0.3468,0.3472,0.3475,0,0.2998,0.3009,0.3036,0.3056,0.307,0.3162,0.3243,0.321,0.3244,0.3398,0.3489,0.3247,0.3175,0.3228,0.3003,0.3006,0.2929,0.2871,0.2732,0.2793,0.2847,0.2674,0.2253,0.2249,0.2245,0.2241,0,0,0.2963,0.2944,0.2951,0.2923,0.2954,0.2938,0.2956,0.2891,0.2922,0.2865,0.284,0.3086,0.3176,0.2694,0.2626,0.2398,0.2571,0.2299,0.329,0.3192,0.324,0.3356,0.3164,0,0,0,0,0]},{"header":{"parameterUnit":"m.s-1","parameterCategory":2,"la1":30.2991,"la2":30.254,"lo1":-89.0895,"lo2":-89.0444,"dy":0.0017,"dx":0.0017,"nx":28,"ny":28,"refTime":"2025-05-26T21:00:00:Z","depth":"2","parameterNumber":3,"parameterNumberName":"V-component_of_CURRENTS"},"data":[0,0,0,0,0,0,0,0,0,0,0,0,0,0,0,0,0,0,0,0,0,0,0,0,0,0,0,0,0,0,0,0,0,0,0,0,0,0,0,0,0,0,0,0,0,0,0,0,0,0,0,0,0,0,0,0,0,0,0.0219,0.0218,0,0.0166,0.0166,0.0165,0.0129,0.0129,0.0129,0.0129,0.0062,0.0061,0.0059,0,0,0,0,0,0,0,0,0,0,0,0,0,0.0236,0.0236,0.0219,0.0218,0.0218,0.0166,0.0166,0.0165,0.0129,0.0129,0.0129,0.0129,0.0063,0.0061,0.0059,0,0,0,0,0,0,0,0,0,0,0,0,0,0.021,0.0236,0.0219,0.0195,0.0192,0.0167,0.0166,0.0165,0.0129,0.0129,0.0129,0.0129,0.0064,0.0061,0.0059,0.0048,0,0,0.0051,0.005,0,0,0,0,0,0,0,0,0.0211,0.0209,0.0199,0.0196,0.0193,0.0155,0.0147,0.0125,0.0129,0.0152,0.0129,0.0129,0.0093,0.0088,0.0077,0.0045,0.0042,0.0051,0.005,0.0048,0.0048,0,0,0,0,0,0,0,0.0213,0.0211,0.0197,0.0198,0.0195,0.0169,0.0165,0.0143,0.0123,0.015,0.0147,0.0144,0.0091,0.008,0.0075,0.0041,0.0051,0.0049,0.0047,0.0046,0.0011,0.0011,0,0,0,0,0,0,0.0225,0.0213,0.0198,0.0195,0.0203,0.0169,0.0165,0.0167,0.0124,0.0117,0.0144,0.0142,0.0084,0.0078,0.0073,0.0084,0.0049,0.0046,0.0045,0.001,0.0011,0.0012,0,0,0,0,0,0,0.0226,0.0225,0.0201,0.0203,0.0199,0.0169,0.0171,0.0166,0.0159,0.0119,0.0113,0.0144,0.0084,0.0076,0.0061,0.008,0.0045,0.0043,0.001,0.0011,0.0011,0.0088,0,0,0,0,0,0,0.0227,0.0225,0.023,0.0204,0.0199,0.0197,0.0172,0.0165,0.0157,0.0155,0.0117,0.011,0.0083,0.0065,0.0059,0.0076,0.0041,0.0009,0.001,0.0011,0.0085,0.0092,0.0097,0,0,0,0,0,0.0228,0.0242,0.0231,0.0229,0.0207,0.0198,0.0193,0.017,0.0158,0.0161,0.0135,0.0112,0.0067,0.0064,0.0056,0.0073,0.0009,0.001,0.0011,0.0082,0.009,0.0097,0,0,0,0,0,0,0.0251,0.0239,0.0226,0.0236,0.0221,0.0193,0.0193,0.0177,0.0158,0.0156,0.0116,0.0108,0.01,0.0075,0.0072,0.0065,0.0035,0.0034,0.0092,0.0099,0.0105,0.0127,0.0039,0,0,0,0,0,0.026,0.0267,0.0247,0.0254,0.025,0.0222,0.0215,0.0202,0.0181,0.0172,0.0145,0.0118,0.0098,0.009,0.0065,0.0063,0.0035,0.0068,0.0074,0.008,0.0092,0.007,0.0076,0.0015,0.0015,0.0015,0,0,0.0269,0.0264,0.0267,0.0259,0.0245,0.0252,0.0218,0.0216,0.0226,0.0168,0.0171,0.0136,0.0101,0.0097,0.0092,0.008,0.008,0.0081,0.0086,0.0096,0.0072,0.0078,0.0083,0.0016,0.0016,0.0016,0,0,0.03,0.029,0.0309,0.0304,0.0294,0.0278,0.0282,0.0259,0.0254,0.0248,0.0211,0.019,0.0158,0.014,0.0126,0.0151,0.011,0.0141,0.0196,0.0174,0.0179,0.0183,0.0149,0.0149,0.0149,0.0149,0.0149,0,0.0313,0.0336,0.0312,0.033,0.0335,0.0296,0.032,0.0309,0.0284,0.0289,0.0261,0.022,0.0182,0.0187,0.019,0.0166,0.0142,0.0173,0.0183,0.0187,0.019,0.0153,0.0153,0.0153,0.0153,0.0152,0.0152,0,0.0359,0.0377,0.0389,0.04,0.04,0.0414,0.0398,0.04,0.0382,0.0366,0.0362,0.0308,0.0287,0.0269,0.0234,0.0242,0.0214,0.0191,0.0169,0.0201,0.016,0.0158,0.0159,0.0157,0.0156,0.0155,0,0,0.0393,0.0419,0.0424,0.0449,0.0442,0.0453,0.0471,0.0481,0.051,0.0466,0.0498,0.0439,0.0403,0.0385,0.0339,0.0316,0.03,0.0268,0.0265,0.0241,0.0246,0.0205,0.0199,0.0282,0.0282,0.0283,0.0206,0,0.0439,0.0499,0.0492,0.0546,0.0576,0.0555,0.0584,0.0585,0.0575,0.0593,0.0538,0.0544,0.0452,0.0453,0.0409,0.034,0.0301,0.0323,0.0212,0.0209,0.0175,0.0198,0.021,0.0142,0.0204,0.0203,0.0203,0,0.0489,0.0527,0.059,0.0641,0.0653,0.0676,0.072,0.0746,0.0751,0.0746,0.0723,0.0677,0.0638,0.0561,0.0441,0.046,0.0356,0.0288,0.0284,0.0221,0.0166,0.012,0.0135,0.0199,0.02,0.02,0.02,0,0.0538,0.0596,0.0654,0.0668,0.0714,0.0745,0.0775,0.0793,0.0852,0.0855,0.0896,0.0809,0.0805,0.0664,0.0494,0.0476,0.0359,0.0317,0.0177,0.0172,0.0149,0.0142,0.0226,0.0227,0.0227,0.0227,0.0227,0,0.0593,0.0641,0.0687,0.0721,0.0808,0.0816,0.0913,0.0926,0.0989,0.1087,0.0988,0.1036,0.0834,0.0736,0.0549,0.0359,0.0392,0.0193,0.0156,0.0173,0.017,0.0194,0.0191,0.0224,0.0225,0.0225,0.0226,0,0.0638,0.0662,0.0739,0.0805,0.0832,0.0901,0.1021,0.1109,0.1143,0.1272,0.1291,0.1226,0.1095,0.0867,0.0648,0.0457,0.0265,0.0181,0.0205,0.0173,0.0074,0.0076,0.003,0.0028,0.0026,0.0025,0.0023,0,0.0666,0.0709,0.0804,0.0867,0.0901,0.1008,0.1103,0.1177,0.1291,0.1397,0.1479,0.1391,0.134,0.0979,0.0635,0.0302,0.0256,0.0086,0.0048,0.0089,0.0057,0.0062,0.0066,0.004,0.0039,0.0038,0.0038,0,0.0724,0.0753,0.0818,0.0951,0.1054,0.1193,0.1335,0.1453,0.1576,0.1675,0.1774,0.1739,0.1403,0.1058,0.059,0.0358,0.0137,0.006,0.0113,0.0089,0.0092,0.0064,0.0069,0.0031,0.0032,0.0032,0.0033,0.0033,0.0764,0.0823,0.0914,0.1041,0.1179,0.1373,0.1515,0.1676,0.1863,0.2034,0.198,0.1926,0.1529,0.0927,0.0516,0.0086,0.0115,-0.0049,-0.0044,-0.0039,-0.0023,-0.0022,-0.0103,-0.0103,-0.0103,-0.0104,-0.0104,0,0.0815,0.0886,0.1005,0.1169,0.1341,0.1415,0.1673,0.1817,0.2044,0.2155,0.2212,0.1822,0.1425,0.0968,0.0333,-0.0044,-0.0071,-0.0176,-0.0125,-0.0116,-0.0109,-0.0094,-0.0195,-0.0196,-0.0197,-0.0198,0,0,0.0843,0.095,0.1012,0.1272,0.1418,0.1682,0.185,0.2034,0.2159,0.2254,0.2219,0.2129,0.1561,0.1085,0.0559,0.0186,0.0125,0.0106,0.0219,0.0351,0.0363,0.0,0.0036,0,0,0,0,0]}],[{"header":{"parameterUnit":"m.s-1","parameterCategory":2,"la1":30.2991,"la2":30.254,"lo1":-89.0895,"lo2":-89.0444,"dy":0.0017,"dx":0.0017,"nx":28,"ny":28,"refTime":"2025-05-26T21:00:00:Z","depth":"4","parameterNumber":2,"parameterNumberName":"U-component_of_CURRENTS"},"data":[0,0,0,0,0,0,0,0,0,0,0,0,0,0,0,0,0,0,0,0,0,0,0,0,0,0,0,0,0,0,0,0,0,0,0,0,0,0,0,0,0,0,0,0,0,0,0,0,0,0,0,0,0,0,0,0,0,0,0.2159,0.216,0,0.2222,0.2223,0.2223,0.2285,0.2286,0.2287,0.2288,0.2366,0.2367,0.2369,0,0,0,0,0,0,0,0,0,0,0,0,0,0.2079,0.208,0.2159,0.216,0.2161,0.2222,0.2223,0.2223,0.2285,0.2286,0.2288,0.2289,0.2366,0.2367,0.2369,0,0,0,0,0,0,0,0,0,0,0,0,0,0.2123,0.208,0.2159,0.2201,0.2206,0.2222,0.2223,0.2223,0.2285,0.2286,0.2288,0.2289,0.2366,0.2367,0.2369,0.2348,0,0,0.2374,0.2375,0,0,0,0,0,0,0,0,0.212,0.2125,0.2194,0.2198,0.2204,0.225,0.2223,0.2267,0.2284,0.2252,0.2288,0.229,0.2329,0.2334,0.2339,0.2351,0.2355,0.2374,0.2375,0.2376,0.2376,0,0,0,0,0,0,0,0.2117,0.2123,0.2182,0.2195,0.2201,0.2213,0.222,0.2231,0.2279,0.2255,0.226,0.2271,0.2332,0.2337,0.2341,0.2356,0.2374,0.2375,0.2376,0.2377,0.2499,0.2501,0,0,0,0,0,0,0.2113,0.212,0.218,0.2184,0.2168,0.2213,0.2222,0.2231,0.2279,0.2289,0.2269,0.2274,0.2333,0.2339,0.2344,0.2449,0.2376,0.2377,0.2378,0.2496,0.2499,0.2502,0,0,0,0,0,0,0.2111,0.2118,0.2177,0.2155,0.2164,0.2213,0.2223,0.2232,0.2285,0.229,0.23,0.232,0.2335,0.2342,0.2398,0.2448,0.2378,0.238,0.2494,0.2497,0.25,0.2578,0,0,0,0,0,0,0.2109,0.2117,0.2144,0.2155,0.2165,0.2219,0.2222,0.2232,0.2287,0.2295,0.2336,0.2342,0.2336,0.2396,0.24,0.2449,0.2381,0.2491,0.2495,0.2499,0.2572,0.2583,0.2593,0,0,0,0,0,0.2105,0.2128,0.2145,0.2153,0.2194,0.222,0.2227,0.2264,0.2289,0.2318,0.2351,0.2343,0.2426,0.2399,0.2403,0.2454,0.2489,0.2494,0.2499,0.2568,0.2581,0.2592,0,0,0,0,0,0,0.211,0.2137,0.2156,0.2188,0.2219,0.2233,0.2269,0.2291,0.2338,0.2361,0.2365,0.2374,0.2444,0.2438,0.2408,0.2503,0.2459,0.2465,0.251,0.2522,0.2532,0.2538,0.2382,0,0,0,0,0,0.2121,0.2151,0.2173,0.2207,0.2226,0.2257,0.2282,0.2308,0.234,0.2365,0.2393,0.2427,0.2458,0.2483,0.2506,0.2551,0.256,0.259,0.26,0.2608,0.2618,0.2685,0.2702,0.2518,0.2518,0.2518,0,0,0.2134,0.2154,0.2173,0.2212,0.2241,0.2271,0.2278,0.233,0.2368,0.2363,0.2441,0.2466,0.248,0.2536,0.2567,0.2544,0.2665,0.2615,0.2622,0.2627,0.2692,0.271,0.2726,0.2521,0.2521,0.252,0,0,0.2154,0.2193,0.2219,0.2248,0.23,0.2316,0.2342,0.2385,0.2426,0.2486,0.2501,0.2559,0.2602,0.2625,0.2638,0.2718,0.2718,0.2735,0.2791,0.2857,0.2872,0.2886,0.2915,0.293,0.2738,0.2739,0.2739,0,0.2174,0.2203,0.2234,0.2265,0.2298,0.2341,0.2377,0.2416,0.2477,0.2518,0.2527,0.2628,0.2642,0.2711,0.2743,0.2742,0.277,0.274,0.287,0.2884,0.2897,0.2923,0.2939,0.2743,0.2742,0.2742,0.2742,0,0.2194,0.2239,0.2261,0.2312,0.2353,0.2395,0.2445,0.2505,0.256,0.2597,0.2699,0.2727,0.279,0.2806,0.2799,0.2902,0.2889,0.2876,0.2837,0.292,0.2942,0.2958,0.2749,0.2748,0.2746,0.2745,0,0,0.2179,0.2259,0.2273,0.2305,0.2385,0.2411,0.2495,0.2569,0.2633,0.271,0.2792,0.2862,0.2902,0.292,0.2934,0.2987,0.3096,0.298,0.2982,0.3004,0.3234,0.302,0.3016,0.3118,0.3122,0.3124,0.3209,0,0.2191,0.2247,0.2292,0.2361,0.2393,0.2468,0.2534,0.2617,0.2695,0.2785,0.2853,0.2935,0.2938,0.2984,0.3047,0.3089,0.3144,0.3074,0.3153,0.3155,0.2952,0.3029,0.3135,0.322,0.3224,0.3227,0.3228,0,0.2185,0.2227,0.2294,0.2383,0.2407,0.2464,0.2586,0.2655,0.2788,0.2854,0.2963,0.3017,0.3127,0.3106,0.3244,0.3207,0.3237,0.3254,0.3258,0.3041,0.297,0.3123,0.3257,0.3254,0.3252,0.325,0.3249,0,0.2131,0.2223,0.2279,0.231,0.2419,0.2484,0.2557,0.2689,0.2761,0.2916,0.2985,0.3117,0.3201,0.3275,0.3336,0.3311,0.3461,0.3422,0.3253,0.3238,0.337,0.3354,0.3517,0.3517,0.3516,0.3516,0.3516,0,0.2095,0.2144,0.2267,0.2293,0.2372,0.2469,0.2574,0.2666,0.2811,0.2888,0.3029,0.3099,0.3256,0.3352,0.3381,0.3366,0.351,0.3273,0.3253,0.3398,0.3385,0.338,0.3363,0.3519,0.3519,0.3518,0.3517,0,0.2018,0.2099,0.2167,0.23,0.2347,0.2411,0.2569,0.2627,0.2791,0.2899,0.2955,0.3137,0.325,0.3364,0.3485,0.3401,0.3413,0.3371,0.3523,0.3508,0.313,0.3117,0.3173,0.3166,0.3161,0.3156,0.3152,0,0.1975,0.2007,0.2156,0.2194,0.2262,0.2372,0.2429,0.26,0.2663,0.2883,0.2909,0.3092,0.3187,0.3196,0.3324,0.3364,0.3329,0.3301,0.3203,0.3124,0.31,0.3095,0.309,0.3143,0.3142,0.314,0.3139,0,0.1895,0.1974,0.2031,0.2108,0.2179,0.2231,0.2339,0.2375,0.2557,0.2733,0.2801,0.2859,0.2979,0.3066,0.3131,0.3148,0.3295,0.3241,0.3251,0.3159,0.3088,0.3069,0.307,0.3119,0.3122,0.3124,0.3125,0,0.1846,0.1865,0.1948,0.1988,0.2061,0.2051,0.2136,0.2204,0.2294,0.2547,0.2566,0.2758,0.2948,0.2954,0.3009,0.3017,0.2961,0.2846,0.2876,0.2899,0.2769,0.2636,0.252,0,0,0,0,0,0.1783,0.1773,0.1806,0.1827,0.1883,0.1916,0.2041,0.2131,0.2327,0.2311,0.2435,0.2529,0.2606,0.2715,0.267,0.2875,0.2967,0.2806,0.2848,0.301,0.3033,0.2904,0,0,0,0,0,0,0.1735,0.1776,0.1756,0.1665,0.1647,0.1678,0.1749,0.1883,0.1901,0.2126,0.22,0.2361,0.2496,0.2611,0.2617,0.2647,0.2616,0.2938,0.2931,0.2997,0.3018,0.3036,0.2912,0,0,0,0,0]},{"header":{"parameterUnit":"m.s-1","parameterCategory":2,"la1":30.2991,"la2":30.254,"lo1":-89.0895,"lo2":-89.0444,"dy":0.0017,"dx":0.0017,"nx":28,"ny":28,"refTime":"2025-05-26T21:00:00:Z","depth":"4","parameterNumber":3,"parameterNumberName":"V-component_of_CURRENTS"},"data":[0,0,0,0,0,0,0,0,0,0,0,0,0,0,0,0,0,0,0,0,0,0,0,0,0,0,0,0,0,0,0,0,0,0,0,0,0,0,0,0,0,0,0,0,0,0,0,0,0,0,0,0,0,0,0,0,0,0,0.0117,0.0116,0,0.0084,0.0083,0.0083,0.0061,0.0061,0.0061,0.0061,0.0013,0.0012,0.001,0,0,0,0,0,0,0,0,0,0,0,0,0,0.0126,0.0126,0.0117,0.0116,0.0116,0.0084,0.0083,0.0083,0.0061,0.0061,0.0061,0.0061,0.0013,0.0012,0.001,0,0,0,0,0,0,0,0,0,0,0,0,0,0.011,0.0126,0.0117,0.0102,0.01,0.0084,0.0083,0.0083,0.0061,0.0061,0.0061,0.006,0.0014,0.0012,0.001,0.0002,0,0,0.0005,0.0004,0,0,0,0,0,0,0,0,0.011,0.0109,0.0104,0.0103,0.0101,0.0077,0.0069,0.0055,0.0061,0.0075,0.0061,0.006,0.0033,0.003,0.0023,-0.0001,-0.0003,0.0004,0.0003,0.0003,0.0002,0,0,0,0,0,0,0,0.0112,0.011,0.0103,0.0104,0.0102,0.0085,0.0083,0.0066,0.0054,0.0074,0.0072,0.007,0.0032,0.0025,0.0022,-0.0003,0.0005,0.0003,0.0002,0.0001,-0.0027,-0.0027,0,0,0,0,0,0,0.0119,0.0112,0.0104,0.0102,0.0106,0.0085,0.0082,0.0084,0.0055,0.0051,0.007,0.0069,0.0028,0.0024,0.002,0.0028,0.0003,0.0001,-0.0,-0.0027,-0.0027,-0.0026,0,0,0,0,0,0,0.012,0.0119,0.0105,0.0106,0.0103,0.0085,0.0087,0.0084,0.0081,0.0052,0.0048,0.0071,0.0028,0.0023,0.0012,0.0025,0.0,-0.0001,-0.0028,-0.0027,-0.0027,0.0031,0,0,0,0,0,0,0.012,0.012,0.0124,0.0107,0.0104,0.0104,0.0087,0.0083,0.0079,0.0078,0.0052,0.0047,0.0027,0.0015,0.001,0.0022,-0.0003,-0.0028,-0.0027,-0.0027,0.0028,0.0033,0.0037,0,0,0,0,0,0.0121,0.0131,0.0125,0.0124,0.0111,0.0104,0.0101,0.0087,0.008,0.0083,0.0065,0.0048,0.0015,0.0014,0.0008,0.002,-0.0028,-0.0028,-0.0027,0.0027,0.0032,0.0037,0,0,0,0,0,0,0.0136,0.0129,0.0122,0.0129,0.012,0.0101,0.0103,0.0092,0.008,0.008,0.0052,0.0046,0.0041,0.0021,0.002,0.0013,-0.0009,-0.0009,0.0033,0.0039,0.0043,0.0058,-0.0004,0,0,0,0,0,0.0142,0.0149,0.0136,0.0142,0.014,0.0122,0.0118,0.011,0.0096,0.0091,0.0072,0.0053,0.0038,0.0032,0.0014,0.0011,-0.0016,0.0015,0.0019,0.0023,0.0031,0.0001,0.0004,-0.0024,-0.0024,-0.0024,0,0,0.0149,0.0146,0.0149,0.0145,0.0137,0.0144,0.012,0.012,0.0128,0.0087,0.0092,0.0066,0.004,0.0037,0.0033,0.0024,0.0014,0.0024,0.0028,0.0034,0.0002,0.0005,0.0007,-0.0024,-0.0024,-0.0024,0,0,0.017,0.0165,0.0179,0.0177,0.0172,0.0162,0.0166,0.0151,0.0149,0.0147,0.0121,0.0104,0.0083,0.0067,0.0057,0.0074,0.0037,0.0068,0.0105,0.0076,0.0079,0.008,0.0042,0.004,0.0072,0.0072,0.0073,0,0.0179,0.0196,0.0181,0.0195,0.0201,0.0175,0.0194,0.0188,0.0172,0.0175,0.0157,0.0125,0.0099,0.0098,0.0102,0.0085,0.0059,0.0089,0.0083,0.0084,0.0084,0.0045,0.0042,0.0075,0.0075,0.0075,0.0074,0,0.021,0.0225,0.0234,0.0246,0.0248,0.0259,0.0251,0.0254,0.0244,0.0233,0.0228,0.0188,0.0171,0.0157,0.0135,0.0131,0.0107,0.0091,0.0072,0.0091,0.0048,0.0043,0.0079,0.0078,0.0077,0.0077,0,0,0.0229,0.0253,0.0258,0.0279,0.0279,0.0289,0.0304,0.0313,0.0334,0.0303,0.0319,0.028,0.0254,0.0239,0.0206,0.0177,0.0151,0.0141,0.0138,0.0108,0.008,0.006,0.0052,0.0134,0.0133,0.0133,0.0045,0,0.0261,0.0305,0.0305,0.0349,0.0372,0.0363,0.0385,0.0388,0.0381,0.0388,0.0343,0.0341,0.0288,0.0284,0.0246,0.018,0.0143,0.0176,0.0062,0.0058,0.0043,0.0049,0.0133,0.0042,0.004,0.004,0.0039,0,0.0293,0.0323,0.0372,0.0417,0.0428,0.0449,0.0485,0.0506,0.0502,0.0496,0.0474,0.0433,0.0392,0.0343,0.0235,0.0259,0.0176,0.0114,0.0109,0.007,0.0031,0.0019,0.0031,0.0031,0.0032,0.0032,0.0033,0,0.0321,0.0371,0.0418,0.0431,0.0472,0.05,0.0527,0.054,0.058,0.0569,0.0582,0.0514,0.0495,0.0384,0.0249,0.0244,0.0119,0.0096,-0.0005,-0.0008,0.0011,0.001,0.0014,0.0014,0.0014,0.0015,0.0015,0,0.0354,0.0395,0.0441,0.0468,0.0538,0.0552,0.0626,0.0637,0.0673,0.0721,0.0647,0.0654,0.0505,0.0412,0.0275,0.0123,0.0135,0.0003,-0.0028,0.0035,0.0038,0.0007,0.0007,0.0011,0.0012,0.0013,0.0013,0,0.0376,0.0403,0.0466,0.0527,0.0553,0.0609,0.0704,0.0764,0.0778,0.0835,0.0838,0.0769,0.0646,0.0477,0.0297,0.0171,0.0018,-0.0043,0.0035,0.0008,-0.0099,-0.0095,-0.0158,-0.0159,-0.016,-0.0161,-0.0162,0,0.039,0.0423,0.0511,0.0563,0.0596,0.0685,0.0756,0.0813,0.088,0.0903,0.0935,0.0838,0.076,0.0502,0.0308,0.0041,-0.0003,-0.0096,-0.0099,-0.0091,-0.0115,-0.0109,-0.0103,-0.0164,-0.0164,-0.0164,-0.0165,0,0.0417,0.0449,0.0503,0.0609,0.0693,0.0798,0.0899,0.0958,0.1022,0.103,0.102,0.0877,0.0736,0.0518,0.0307,0.0112,-0.0042,-0.0109,-0.0108,-0.0112,-0.0099,-0.0121,-0.0114,-0.0169,-0.0168,-0.0168,-0.0168,0,0.0437,0.0481,0.0556,0.065,0.0763,0.0879,0.0934,0.1016,0.1081,0.1102,0.1093,0.0929,0.0839,0.0554,0.0361,0.0166,0.0111,0.0032,0.0024,0.0026,0.0097,0.0141,0.0123,0,0,0,0,0,0.0455,0.0505,0.0594,0.0706,0.0823,0.0893,0.1018,0.1069,0.1124,0.1132,0.1119,0.0984,0.0703,0.0589,0.0395,0.0318,0.0061,0.0078,-0.0037,-0.0191,-0.0186,-0.0137,0,0,0,0,0,0,0.0467,0.0545,0.0589,0.0734,0.0823,0.0965,0.1051,0.1092,0.1104,0.1118,0.0988,0.0911,0.0654,0.0816,0.0384,0.0324,0.0217,-0.0048,-0.0054,-0.0193,-0.0189,-0.0185,-0.0133,0,0,0,0,0]}]]